EW9824 Weather Reports


time (UTC)temp
C
wind
direction
speed
KPH
gust
KPH
rain 1hr
cm
rain 24hr
cm
rain mn
cm
humidity
%
barometer
mb
20260510074533 9 169 6.4 9.7 0.00 0.00 0.00 69 1019.9
20260510070030 10 160 3.2 6.4 0.00 0.00 0.00 66 1019.9
20260510064532 10 158 4.8 9.7 0.00 0.00 0.00 66 1019.8
20260510061529 10 161 4.8 9.7 0.00 0.00 0.00 66 1019.7
20260510054528 10 169 4.8 8.0 0.00 0.00 0.00 65 1019.6
20260510053031 11 158 1.6 6.4 0.00 0.00 0.00 64 1019.6
20260510051529 11 160 4.8 8.0 0.00 0.00 0.00 64 1019.5
20260510050032 13 163 3.2 8.0 0.00 0.00 0.00 61 1019.4
20260510044530 13 165 6.4 11.3 0.00 0.00 0.00 63 1019.3
20260510043034 13 182 6.4 9.7 0.00 0.00 0.00 65 1019.3
20260510041607 13 171 3.2 6.4 0.00 0.00 0.00 67 1019.2
20260510040031 15 154 3.2 8.0 0.00 0.00 0.00 66 1019.0
20260510034606 16 161 1.6 6.4 0.00 0.00 0.00 64 1018.9
20260510033031 17 177 4.8 8.0 0.00 0.00 0.00 64 1018.9
20260510031529 18 168 1.6 4.8 0.00 0.00 0.00 62 1018.8
20260510024604 19 143 1.6 4.8 0.00 0.00 0.00 55 1018.9
20260510023030 20 125 3.2 4.8 0.00 0.00 0.00 51 1019.0
20260510021541 21 98 0.0 3.2 0.00 0.00 0.00 48 1018.9
20260510020032 21 45 0.0 3.2 0.00 0.00 0.00 43 1019.0
20260510014531 22 55 0.0 6.4 0.00 0.00 0.00 39 1019.1
20260510011531 23 305 0.0 3.2 0.00 0.00 0.00 35 1019.4
20260510010146 23 287 3.2 9.7 0.00 0.00 0.00 33 1019.4
20260510004530 24 285 4.8 11.3 0.00 0.00 0.00 34 1019.4
20260510003147 23 300 4.8 12.9 0.00 0.00 0.00 35 1019.5
20260510001607 23 325 6.4 12.9 0.00 0.00 0.00 36 1019.5
20260510000031 23 346 8.0 16.1 0.00 0.00 0.00 36 1019.5
20260509233031 23 338 8.0 16.1 0.00 0.00 0.00 37 1019.9
20260509231543 23 322 6.4 16.1 0.00 0.00 0.00 38 1020.2
20260509230031 23 326 8.0 20.9 0.00 0.00 0.00 39 1020.4
20260509224532 23 328 6.4 16.1 0.00 0.00 0.00 39 1020.7
20260509223031 23 319 6.4 17.7 0.00 0.00 0.00 39 1020.9
20260509221531 22 327 8.0 17.7 0.00 0.00 0.00 40 1021.1
20260509220031 22 316 8.0 22.5 0.00 0.00 0.00 40 1021.2
20260509214528 22 311 8.0 17.7 0.00 0.00 0.00 43 1021.4
20260509213030 22 330 9.7 22.5 0.00 0.00 0.00 45 1021.6
20260509211530 21 307 8.0 16.1 0.00 0.00 0.00 47 1021.7
20260509210031 21 344 8.0 17.7 0.00 0.00 0.00 48 1021.9
20260509204604 21 324 8.0 16.1 0.00 0.00 0.00 48 1022.1
20260509203030 21 303 8.0 17.7 0.00 0.00 0.00 50 1022.2
20260509201602 20 347 6.4 16.1 0.00 0.00 0.00 51 1022.3
20260509200030 20 334 8.0 17.7 0.00 0.00 0.00 53 1022.6
20260509194604 20 7 8.0 16.1 0.00 0.00 0.00 54 1022.8
20260509193144 19 351 6.4 14.5 0.00 0.00 0.00 54 1023.0
20260509191529 18 353 6.4 16.1 0.00 0.00 0.00 55 1023.1
20260509190107 18 347 8.0 16.1 0.00 0.00 0.00 54 1023.3
20260509184530 18 330 6.4 12.9 0.00 0.00 0.00 55 1023.4
20260509183031 17 336 6.4 12.9 0.00 0.00 0.00 56 1023.5
20260509181531 17 343 8.0 14.5 0.00 0.00 0.00 57 1023.7
20260509174530 16 331 8.0 16.1 0.00 0.00 0.00 59 1023.6
20260509173103 16 309 8.0 16.1 0.00 0.00 0.00 59 1023.6
20260509171530 15 336 6.4 14.5 0.00 0.00 0.00 59 1023.8
20260509170032 15 348 8.0 16.1 0.00 0.00 0.00 61 1023.9
20260509164532 15 353 8.0 16.1 0.00 0.00 0.00 61 1024.0
20260509163033 14 314 4.8 11.3 0.00 0.00 0.00 59 1024.1
20260509161532 13 346 4.8 9.7 0.00 0.00 0.00 59 1024.1
20260509160029 13 8 3.2 8.0 0.00 0.00 0.00 60 1024.2
20260509154531 13 66 0.0 4.8 0.00 0.00 0.00 64 1024.4
20260509153030 11 79 1.6 4.8 0.00 0.00 0.00 70 1024.4
20260509151534 10 16 0.0 3.2 0.00 0.00 0.00 76 1024.3
20260509150031 9 118 0.0 4.8 0.00 0.00 0.00 80 1024.3
20260509143107 6 132 3.2 6.4 0.00 0.00 0.00 87 1024.2
20260509141532 5 127 4.8 8.0 0.00 0.00 0.00 86 1024.0
20260509140115 5 156 4.8 9.7 0.00 0.00 0.00 87 1023.8
20260509134533 4 155 4.8 11.3 0.00 0.00 0.00 89 1023.8
20260509133033 4 163 4.8 8.0 0.00 0.00 0.00 90 1023.8
20260509131531 3 144 6.4 11.3 0.00 0.00 0.00 91 1023.8
20260509130031 3 155 4.8 8.0 0.00 0.00 0.00 91 1023.5
20260509124531 3 158 3.2 6.4 0.00 0.00 0.00 91 1023.4
20260509123028 3 173 4.8 8.0 0.00 0.00 0.00 92 1023.3
20260509121532 3 145 4.8 6.4 0.00 0.00 0.00 92 1023.4
20260509113030 4 143 3.2 6.4 0.00 0.00 0.00 90 1023.4
20260509104531 5 119 1.6 6.4 0.00 0.00 0.00 85 1023.5
20260509103033 6 147 3.2 8.0 0.00 0.00 0.00 82 1023.6
20260509100033 7 166 4.8 12.9 0.00 0.00 0.00 82 1023.8
20260509094529 7 176 6.4 11.3 0.00 0.00 0.00 83 1023.8
20260509091532 7 160 4.8 11.3 0.00 0.00 0.00 83 1024.1
20260509090030 7 182 4.8 8.0 0.00 0.00 0.00 83 1024.2
20260509084531 7 176 4.8 11.3 0.00 0.00 0.00 83 1024.4
20260509083033 7 167 6.4 12.9 0.00 0.00 0.00 82 1024.6